Theta_e
348 346 346 346 345 342 344 341 341 338 336 337 340 340 339 341 340 342 342 340 336 337 336 340 336 335 335 334 334 335 335 335 336 336 337 339 339 341 337 329 330 330 332
350 347 346 346 343 342 343 344 345 345 344 344 345 345 343 341 341 338 341 344 345 344 339 340 340 340 337 334 331 330 330 329 331 334 336 336 335 334 335 332 332 334 335
352 348 348 346 347 345 344 345 346 348 345 340 336 334 336 335 334 332 335 333 334 343 343 341 341 339 336 333 331 327 326 326 329 331 332 334 336 336 336 335 335 336 337
350 350 348 346 346 344 345 345 344 341 335 332 329 329 328 332 328 330 334 329 326 335 327 341 341 338 333 331 331 332 330 327 326 329 330 331 331 333 336 338 337 335 335
350 349 347 347 344 344 342 341 337 335 328 329 326 323 323 323 327 326 328 328 329 342 342 342 338 335 334 332 333 333 332 332 328 329 329 330 332 333 335 335 334 335 336
350 351 349 345 341 339 333 331 331 326 327 328 324 323 324 323 323 322 325 331 340 340 337 336 334 332 332 333 333 333 333 333 333 332 329 330 332 333 332 329 330 331 332
352 349 346 342 337 334 329 327 329 329 327 323 320 321 319 319 323 326 331 336 339 334 332 331 333 331 329 331 333 335 334 331 329 331 331 330 332 332 332 331 328 326 326
348 346 342 339 335 331 327 330 330 329 326 324 331 330 333 330 330 334 339 339 335 331 332 331 329 329 329 325 326 325 328 329 329 334 332 331 330 329 331 331 331 331 328
344 342 340 335 330 332 332 330 326 330 336 333 330 332 334 336 333 330 325 327 325 327 327 326 325 323 322 322 323 321 324 324 325 327 328 327 328 328 328 329 331 331 333
341 340 337 336 334 329 327 325 332 336 335 335 333 333 332 331 332 329 328 326 325 323 321 321 319 320 320 319 318 319 319 323 318 318 318 318 319 321 324 325 326 326 328
335 336 334 333 333 334 335 336 334 333 333 331 328 325 324 322 321 329 328 322 320 319 320 319 320 318 318 319 319 319 319 317 316 315 315 314 314 317 319 320 321 322 324
336 336 337 337 335 334 333 332 332 330 327 324 322 322 321 322 321 321 320 320 319 319 319 318 318 319 319 318 317 317 317 316 316 316 316 315 315 314 314 315 315 316 318
332 332 333 332 331 329 328 326 324 323 323 323 322 322 322 322 320 320 320 320 320 319 319 319 319 320 318 319 320 319 320 320 319 318 318 317 316 315 315 314 314 314 315
331 330 330 328 325 324 324 324 323 324 322 322 322 322 322 321 320 320 320 320 319 319 320 320 318 318 318 319 319 319 319 318 318 317 316 316 316 315 314 314 314 312 311
327 326 324 324 323 322 322 322 322 322 323 322 321 321 321 320 320 319 318 319 319 320 319 317 318 318 319 319 318 317 317 318 316 315 316 316 315 316 315 314 314 314 312
323 322 322 322 321 321 321 321 321 321 320 320 320 320 319 319 318 317 317 317 317 318 319 318 319 318 316 316 316 316 316 317 317 316 315 315 315 314 314 314 314 313 313
321 321 320 321 320 320 320 320 319 319 319 319 317 317 316 315 316 317 315 315 316 316 317 316 315 315 315 315 315 315 316 315 316 315 315 315 315 315 315 315 315 313 313
320 320 319 318 318 317 317 318 318 317 315 315 315 315 315 314 315 314 314 315 315 314 314 314 314 314 313 312 312 313 312 313 315 315 314 314 314 314 314 314 314 314 313
318 318 318 318 317 317 317 316 313 312 312 313 314 313 313 313 314 314 314 313 311 312 312 311 311 310 311 311 311 311 311 312 313 313 313 314 313 312 312 313 314 314 314
319 318 317 317 316 313 312 310 308 308 307 309 310 312 313 314 313 312 312 310 310 309 308 309 309 309 310 310 310 310 310 310 309 310 310 311 312 313 314 315 315 315 314
317 316 316 314 310 308 306 306 305 305 304 306 308 311 312 311 311 309 308 306 305 306 307 309 310 311 310 310 310 309 308 307 306 307 310 311 312 311 311 312 313 314 316
314 314 312 311 308 305 302 304 303 303 303 306 310 310 310 310 308 307 306 303 304 305 306 308 310 310 308 306 306 305 304 304 306 307 309 308 310 310 311 312 313 315 316
311 311 310 309 306 302 302 302 301 302 305 308 306 307 307 307 306 304 303 304 308 309 308 304 305 305 304 304 303 303 303 303 304 305 307 309 310 310 310 312 314 315 316
309 309 307 306 303 300 298 298 300 302 304 304 304 305 306 304 302 299 299 303 306 305 305 302 302 303 304 303 302 302 302 304 305 307 309 310 310 311 311 312 314 316 313
308 307 305 304 302 299 297 295 297 298 299 299 301 303 303 300 297 297 297 299 302 301 300 302 301 301 302 302 301 301 301 301 300 302 306 309 310 310 311 311 314 316 314
306 305 304 303 301 299 297 294 295 294 294 295 299 301 301 299 295 296 296 296 298 298 298 300 299 298 298 298 297 298 297 296 295 300 309 308 309 309 310 309 312 313 312
Wind_Speed
13 12 12 11 15 13 18 12 19 19 13 12 12 13 17 15 14 16 18 18 22 19 18 17 14 14 16 19 20 20 20 19 20 20 22 22 22 23 24 23 24 23 22
13 12 10 6 9 6 4 4 10 6 4 5 9 8 14 17 12 12 13 18 21 19 16 21 19 14 14 16 19 21 23 21 21 22 21 22 23 23 23 25 26 25 24
9 12 10 12 8 7 6 2 3 7 8 11 15 17 14 14 12 12 16 20 25 26 30 14 23 17 14 16 20 21 22 21 21 21 22 24 25 27 26 26 27 26 27
13 10 2 2 5 9 8 4 1 6 11 15 20 21 21 11 7 6 9 13 14 23 18 23 19 17 14 19 15 14 16 18 19 19 18 20 24 25 26 27 28 28 27
15 9 6 7 8 8 8 9 9 5 6 3 4 10 12 17 13 13 13 12 20 33 22 16 19 13 20 20 19 14 15 16 16 17 17 17 18 20 23 22 22 23 24
12 12 9 8 6 11 13 12 10 8 3 3 5 6 6 7 11 16 24 21 27 25 21 17 14 19 19 14 13 15 14 13 13 17 17 16 16 15 15 17 18 20 22
13 12 13 9 11 12 15 13 7 2 4 7 7 6 9 7 24 28 32 32 23 19 15 8 14 14 22 20 18 15 11 16 20 21 16 14 17 18 20 21 20 20 22
12 12 8 12 11 12 14 6 3 6 7 9 4 4 3 12 18 13 9 22 14 10 11 14 19 19 15 17 17 20 21 16 17 14 15 17 18 19 20 20 23 24 25
11 8 8 8 13 8 5 3 7 7 2 4 8 8 3 2 9 7 19 9 16 20 22 22 21 22 23 23 21 23 21 24 19 15 14 15 16 18 19 21 21 22 24
8 5 6 7 6 3 4 9 3 3 2 3 6 3 6 7 2 5 11 19 16 20 22 21 22 21 17 24 26 19 22 18 15 17 18 19 22 22 22 23 24 22 19
13 8 4 3 3 3 6 3 1 3 1 3 2 6 11 11 13 7 9 14 23 20 21 23 21 26 25 21 17 15 15 19 18 21 26 26 25 21 22 23 24 24 23
16 12 6 3 5 1 1 0 0 2 2 4 6 8 10 8 12 9 4 11 15 24 21 25 25 22 19 16 17 19 21 20 25 29 27 26 27 28 25 25 26 27 27
20 18 12 8 4 4 3 1 1 1 3 3 6 8 11 14 16 19 17 12 7 22 24 23 21 15 18 19 18 20 21 20 22 25 29 29 28 31 32 29 27 26 27
17 19 16 11 8 4 2 1 4 1 3 4 8 10 10 13 15 17 17 13 9 11 19 22 25 20 25 24 26 26 28 31 27 31 34 36 37 35 33 30 30 28 26
16 16 15 14 9 4 1 4 7 4 3 5 9 12 11 12 17 13 17 18 13 7 8 20 26 30 24 25 29 29 29 27 32 33 32 32 33 34 32 30 30 31 29
17 13 11 10 8 3 1 4 7 9 8 6 9 11 14 13 16 16 16 18 21 18 8 18 23 27 37 34 33 30 29 29 30 30 29 29 31 34 34 32 33 31 31
16 12 8 7 5 1 3 5 7 9 8 9 11 13 14 16 19 14 17 19 18 18 11 21 26 31 34 31 34 34 29 31 28 29 31 31 33 32 33 35 34 33 32
10 10 9 6 4 4 5 7 8 9 10 14 14 15 15 16 18 17 18 15 16 21 17 18 27 28 29 32 32 33 33 31 29 30 30 32 31 24 30 32 31 33 33
10 8 6 4 4 5 7 9 12 12 13 14 17 16 16 18 17 13 14 14 18 17 18 20 26 27 28 28 29 30 31 31 28 30 29 30 33 33 29 28 29 31 31
8 6 5 5 7 8 9 10 12 15 15 16 18 18 18 8 12 14 13 16 16 18 19 20 22 26 24 27 26 27 28 27 31 28 32 32 30 26 25 24 25 29 32
7 6 8 14 12 11 14 15 18 21 19 17 16 17 10 12 8 10 12 16 18 19 18 20 21 23 23 24 22 23 25 29 33 27 25 23 22 27 33 28 27 27 29
11 13 14 11 11 11 15 17 20 23 15 14 16 13 10 11 13 15 16 19 17 22 22 19 19 19 25 26 26 27 25 21 8 14 18 29 24 28 29 27 25 26 26
9 10 11 8 8 11 17 22 20 13 14 11 11 12 12 10 13 18 22 16 18 16 10 15 20 20 28 27 29 29 25 24 24 31 26 25 24 26 27 27 25 24 23
10 9 12 10 7 12 20 23 16 13 13 14 14 13 9 9 15 22 22 18 18 17 20 23 22 30 27 30 28 27 29 28 25 28 22 9 23 24 27 27 26 16 17
8 12 10 11 8 10 18 24 19 13 13 13 14 10 10 15 21 18 18 17 19 18 22 21 24 27 27 25 26 28 22 21 15 24 24 19 13 19 20 24 19 14 21
7 6 7 7 10 8 16 25 21 15 15 15 14 12 11 19 18 16 19 17 17 20 26 25 27 29 26 26 25 22 23 20 20 11 6 13 18 15 4 18 18 19 26
Wind_Direction
205 199 235 226 195 203 221 213 230 224 225 238 262 285 300 315 310 336 335 325 298 294 284 285 283 278 284 287 285 283 281 283 286 282 278 275 275 270 268 270 275 280 276
213 191 218 251 265 272 102 163 29 42 15 320 330 344 349 341 300 300 318 334 314 320 303 308 290 284 290 293 295 291 285 286 283 279 279 275 275 275 272 271 274 277 275
220 202 201 215 219 205 168 139 59 27 16 3 359 357 1 346 359 298 235 279 310 326 306 313 270 280 285 299 303 297 289 287 285 281 277 274 270 269 268 267 268 271 275
215 189 89 189 175 164 152 151 115 42 38 26 9 0 354 347 359 255 268 285 303 329 308 298 293 273 294 312 299 306 306 298 287 286 285 283 275 270 269 268 269 272 273
198 193 215 172 177 189 151 147 125 121 56 31 334 347 355 350 317 306 318 321 269 270 274 278 290 298 307 299 287 288 314 299 294 289 293 293 289 279 272 272 273 271 274
175 194 178 194 170 159 141 134 133 133 129 358 24 333 352 329 317 305 288 290 279 283 284 277 278 289 299 310 288 294 292 295 299 301 298 287 286 287 282 279 277 276 277
170 190 183 145 162 159 151 150 147 224 119 111 90 345 295 278 284 293 288 288 281 275 290 291 323 325 318 321 318 313 295 304 307 298 285 285 285 285 283 282 280 282 282
165 172 172 171 174 173 165 180 247 153 147 161 152 255 300 307 297 306 292 253 269 320 324 320 313 325 323 327 320 322 323 316 308 283 289 289 290 291 291 287 283 287 285
151 163 171 168 173 175 228 232 171 134 175 193 240 254 299 283 343 321 323 329 333 330 321 322 311 309 311 317 316 315 307 305 305 296 295 301 301 296 292 290 289 289 285
134 172 166 190 201 151 157 140 162 239 260 313 325 6 280 291 304 319 315 316 323 321 319 317 319 311 309 308 305 302 299 302 314 315 312 306 301 299 296 295 292 298 305
113 124 141 167 158 185 168 153 298 295 336 332 346 340 322 321 303 263 290 311 316 316 318 317 318 318 313 306 305 308 299 310 315 315 311 306 305 299 295 291 292 292 294
134 133 126 69 184 355 103 132 201 335 310 323 332 325 316 298 299 291 298 304 305 311 315 315 311 311 314 322 319 309 310 305 308 310 308 304 303 302 298 293 289 287 286
165 160 180 175 132 144 129 202 289 295 326 331 318 304 297 304 308 302 294 294 299 307 308 303 303 318 345 337 327 327 320 319 309 305 303 301 300 299 297 298 292 289 283
148 137 136 135 121 134 92 315 301 259 306 316 304 293 286 293 298 301 303 313 310 296 297 314 326 330 329 324 319 314 316 312 308 306 302 301 301 299 297 293 292 291 290
141 136 135 140 114 97 53 337 336 310 290 314 308 303 303 307 305 334 333 331 323 315 315 319 310 314 319 321 314 313 310 302 302 301 301 301 301 298 296 294 291 285 291
129 127 117 116 115 116 38 341 344 337 334 316 316 321 323 324 324 319 310 317 321 310 302 307 308 308 309 313 312 311 307 306 307 304 308 305 298 294 294 293 291 287 290
125 125 117 102 103 69 13 357 346 320 329 343 333 325 323 319 316 313 317 306 296 300 302 303 303 305 309 311 313 313 314 312 308 305 305 303 300 296 295 291 292 289 288
121 129 119 91 55 5 352 337 329 3 346 343 329 318 316 314 311 315 309 313 320 316 312 303 301 305 308 311 309 312 316 311 306 303 303 301 306 299 295 289 290 291 287
113 100 89 68 23 357 358 41 29 11 0 340 333 326 319 312 307 315 318 323 321 312 311 309 302 305 307 311 310 309 308 309 304 305 301 296 301 301 296 297 287 290 290
99 81 61 30 49 62 49 27 5 353 340 329 322 315 318 330 331 322 326 320 314 313 309 300 300 302 306 309 306 305 309 309 309 310 302 296 304 307 306 299 294 291 296
77 51 64 62 62 46 29 7 356 344 334 323 313 315 321 345 348 339 340 326 317 301 297 297 302 306 310 315 317 319 311 312 308 308 298 301 309 302 301 303 290 296 300
65 58 60 59 41 36 14 355 345 335 329 317 309 322 333 334 332 333 329 315 301 295 289 294 309 315 318 324 317 315 311 311 311 307 310 300 304 299 295 296 300 297 310
58 62 56 47 51 21 1 348 338 347 333 349 6 359 348 335 334 334 333 341 338 343 2 339 323 320 312 318 315 311 309 300 292 295 301 296 305 294 302 299 294 289 303
63 60 61 73 52 19 4 353 1 357 358 2 360 354 349 354 341 339 337 337 339 343 334 335 328 316 316 320 320 312 310 300 305 299 290 282 309 300 303 302 298 287 323
58 68 75 69 47 21 5 6 12 5 0 350 3 348 360 356 347 347 349 342 337 336 339 345 340 334 329 328 328 325 328 327 319 309 303 286 286 312 310 309 313 307 328
61 56 68 61 53 16 3 5 13 10 2 358 7 351 346 342 351 354 351 342 328 333 340 336 342 341 338 333 331 331 325 317 316 304 322 342 303 308 295 303 304 319 325